軌道要素
Epoch 2024 Mar. 31.0 TT = JDT 2460400.5
T 2024 Aug. 5.43677 TT Rudenko
q 1.4195918 (2000.0) P Q
n 0.12199920 Peri. 317.07359 +0.93950532 -0.13415073
a 4.0262251 Node 53.37546 +0.30273087 +0.75568840
e 0.6474137 Incl. 23.12306 -0.16026158 +0.64104495
P 8.08
>From 156 observations 2016 Apr. 19-2024 June 19, mean residual 0".6.
Nongravitational parameters A1 = -0.56, A2 = -0.0608.
|